Regional Weather Roundup
Issued by NWS

Home | Current Version | Previous Version | Graphics & Text | Print | Product List | Glossary On
Versions: 1 2 3 4 5 6 7 8 9 10 11 12 13 14 15 16 17 18 19 20 21 22 23 24 25 26 27 28 29 30 31 32 33 34 35 36 37 38 39 40 41 42 43 44 45 46 47 48 49 50
000
ASUS43 KLOT 150010
RWRIL

ILLINOIS REGIONAL WEATHER ROUNDUP
NATIONAL WEATHER SERVICE CHICAGO/ROMEOVILLE IL
700 PM CDT SUN SEP 14 2014

NOTE: "FAIR" INDICATES FEW OR NO CLOUDS BELOW 12,000 FEET WITH NO
SIGNIFICANT WEATHER AND/OR OBSTRUCTIONS TO VISIBILITY.

* THESE STATIONS ARE NOT UNDER NWS QUALITY CONTROL. THEY ALSO MAY NOT
  REPORT WEATHER SUCH AS PRECIPITATION OR FOG.

ILZ001-002-007-009-015-016-024-150100-
NORTHWEST ILLINOIS

CITY           SKY/WX    TMP DP  RH WIND       PRES   REMARKS
MOLINE         CLEAR     61  48  62 CALM      30.16F
6HR MIN TEMP:  61; 6HR MAX TEMP:  68;

STERLING*      CLEAR     61  46  59 CALM      30.17S
SAVANNA*       PTCLDY    62  46  55 S5        30.15F
$$

ILZ003-004-008-010-011-017-018-150100-
NORTH CENTRAL ILLINOIS

CITY           SKY/WX    TMP DP  RH WIND       PRES   REMARKS
ROCKFORD       PTCLDY    61  45  55 SW3       30.19R
6HR MIN TEMP:  61; 6HR MAX TEMP:  66;

FREEPORT*      PTCLDY    59  48  66 SW3       30.18F
ROCHELLE*      CLEAR     59  47  63 SW6       30.18R
DE KALB*       PTCLDY    57  47  67 S5        30.19S
PERU*          CLEAR     61  46  58 S6        30.18S
$$

ILZ005-006-012>014-019>023-150100-
NORTHEAST ILLINOIS

CITY           SKY/WX    TMP DP  RH WIND       PRES   REMARKS
CHICAGO-OHARE  PTCLDY    62  43  49 SW6       30.17F
6HR MIN TEMP:  60; 6HR MAX TEMP:  65;

CHICAGO-MIDWAY PTCLDY    64  43  46 SW7       30.18S
6HR MIN TEMP:  63; 6HR MAX TEMP:  67;

AURORA         CLEAR     61  44  53 SW5       30.18S
6HR MIN TEMP:  61; 6HR MAX TEMP:  66;

LANSING*       CLEAR     58  47  68 S5        30.19S
JOLIET*        CLEAR     59  47  66 CALM      30.19S
WAUKEGAN       CLEAR     57  46  66 CALM      30.16S
6HR MIN TEMP:  57; 6HR MAX TEMP:  64;

DUPAGE AIRPORT CLEAR     60  45  57 SW5       30.18R
6HR MIN TEMP:  60; 6HR MAX TEMP:  67;

KANKAKEE*      CLEAR     59  47  65 CALM      30.19F
WHEELING       CLEAR     63  43  48 SW6       30.19S
6HR MIN TEMP:  61; 6HR MAX TEMP:  66;

MORRIS*        CLEAR     61  49  66 CALM      30.18S
ROMEOVILLE*    CLEAR     58  47  67 SW5       30.18S
NORTHERLY ISL    N/A     64  41  42 S8          N/A
$$

LMZ740>746-150100-
SOUTHERN LAKE MICHIGAN

STATION/POSITION SKY/WX   TEMP    WIND        PRES    VSBY  WAVE
                          AIR SEA DIR/SP/G                  HT/PER
                          (F)     (DEG/KT/KT) (MB)    (MI)  (FT/S)
SOUTHERN BUOY              60 65  190/ 10/ 12 1022.0F         2/ 4
WAUKEGAN HARBOR            63     220/  9/ 10   N/A
HARRISON CRIB              64     210/ 12/ 14   N/A
BURNHAM HARBOR             64     170/  5/ 10   N/A
CALUMET HARBOR             64     200/  5/  7 1020.7F
MICHIGAN CITY              62     180/  6/  8   N/A
MICHIGAN CITY 6N           63 65  190/  8/ 10   N/A           1
ST. JOSEPH                 62 67  170/  6/ 10   N/A           1/ 3
$$

ILZ025>027-034>036-040-047-049-050-058-095>099-150100-
WEST-CENTRAL ILLINOIS

CITY           SKY/WX    TMP DP  RH WIND       PRES   REMARKS
QUINCY         CLEAR     64  48  56 SE5       30.16F
GALESBURG*     CLEAR     64  49  59 CALM      30.17S
MACOMB*        CLEAR     61  51  69 S3        30.19F
JACKSONVILLE*  CLEAR     65  49  55 CALM      30.19S
PITTSFIELD*    CLEAR     64  49  58 S3        30.18S
$$

ILZ028>032-037-038-041>044-048-051>054-059>061-150100-
CENTRAL ILLINOIS

CITY           SKY/WX    TMP DP  RH WIND       PRES   REMARKS
PONTIAC        CLEAR     63  50  63 CALM      30.19S
DECATUR        CLEAR     67  44  43 CALM      30.19F
PEORIA         CLEAR     63  48  58 CALM      30.18F
6HR MIN TEMP:  63; 6HR MAX TEMP:  70;

LACON*         CLEAR     60  48  65 CALM      30.18S
LINCOLN*       CLEAR     63  45  51 CALM      30.16F
SPRINGFIELD    CLEAR     65  47  52 CALM      30.18F
6HR MIN TEMP:  64; 6HR MAX TEMP:  70;

TAYLORVILLE    CLEAR     59  48  67 S5        30.19S
$$

ILZ033-039-045-046-055>057-062-063-150100-
EAST-CENTRAL ILLINOIS

CITY           SKY/WX    TMP DP  RH WIND       PRES   REMARKS
CHAMPAIGN      CLEAR     61  50  67 CALM      30.20S
DANVILLE*      CLEAR     60  49  68 CALM      30.18S
RANTOUL*       CLEAR     65  43  44 CALM      30.21S
MATTOON        CLEAR     60  51  72 S3        30.20S
PARIS*         CLEAR     59  51  76 CALM      30.21S
$$

ILZ079-100>102-150100-
SOUTHWEST ILLINOIS

CITY           SKY/WX    TMP DP  RH WIND       PRES   REMARKS
ALTON          CLEAR     63  50  63 CALM      30.19F
CAHOKIA*       CLEAR     64  52  64 SE3       30.18F
SPARTA*        CLEAR     63  52  67 CALM      30.21S
$$

ILZ064>066-069>071-074>076-080>082-084>086-088>090-092>094-150100-
SOUTH-CENTRAL ILLINOIS

CITY           SKY/WX    TMP DP  RH WIND       PRES   REMARKS
CARBONDALE     CLEAR     64  54  69 CALM      30.20S
6HR MIN TEMP:  64; 6HR MAX TEMP:  72;

CAIRO*         CLEAR     67  58  74 CALM      30.19S
EFFINGHAM*     CLEAR     60  52  73 CALM      30.21S
MARION         CLEAR     63  55  77 CALM      30.20S
MT. VERNON     CLEAR     61  48  63 CALM      30.21S
CENTRALIA*     CLEAR     64  51  63 CALM      30.21R
SALEM*         CLEAR     62  55  77 CALM      30.21S
METROPOLIS*    CLEAR     65  58  77 CALM      30.18S
$$

ILZ067-068-072-073-078-083-087-091-150100-
SOUTHEAST ILLINOIS

CITY           SKY/WX    TMP DP  RH WIND       PRES   REMARKS
LAWRENCEVILLE  CLEAR     63  54  72 NE3       30.20S
FLORA*         CLEAR     64  47  55 CALM      30.21S
FAIRFIELD*     CLEAR    N/A N/A N/A CALM      30.20S
HARRISBURG*    CLEAR     66  53  62 CALM      30.20F
ROBINSON*      CLEAR     65  52  63 CALM      30.21S
CARMI*         CLEAR     63  56  79 CALM      30.20S
$$

ABBREVIATIONS USED IN REMARKS
   TC - TEMPERATURE IN CELSIUS
  WCI - WIND CHILL INDEX
   HX - HEAT INDEX
  VSB - VISIBILITY
$$



USA.gov is the U.S. government's official web portal to all federal, state and local government web resources and services.